SKYTERRA 1

Last updated on Thu Jul 03 2025 00:02:45 GMT+0000 (Coordinated Universal Time)

1 37218U 10061A 25183.43095757 -.00000113 00000+0 00000+0 0 9992 2 37218 4.3833 50.6686 0001679 41.5091 242.3663 1.00272869 53681
UTC large
Height (km)
Speed (km/s)
/
Latitude / Longitude
Inclination (degrees)
Orbital Period (minutes)
Azimuth
Elevation
Range (km)
Doppler Factor

Next 0 passes for location: London (51.5072 / 0.1276)

Sorry there are no passes over London.